Regional Weather Roundup
Issued by NWS

Home | Current Version | Previous Version | Text Only | Print | Product List | Glossary On
Versions: 1 2 3 4 5 6 7 8 9 10 11 12 13 14 15 16 17 18 19 20 21 22 23 24 25 26 27 28 29 30 31 32 33 34 35 36 37 38 39 40 41 42 43 44 45 46 47 48 49 50
000
ASUS46 KPQR 222310
RWROR

OREGON REGIONAL WEATHER ROUNDUP
NATIONAL WEATHER SERVICE PORTLAND OR
300 PM PST SUN JAN 22 2017

NOTE: "FAIR" INDICATES FEW OR NO CLOUDS BELOW 12,000 FEET WITH
NO SIGNIFICANT WEATHER AND/OR OBSTRUCTIONS TO VISIBILITY.

ORZ001>013-230000-
NORTHWEST OREGON


CITY           SKY/WX    TMP DP  RH WIND       PRES   REMARKS
ASTORIA        CLOUDY    50  34  54 S6G16     29.47F
NEWPORT        PTSUNNY   43  37  81 SE14G21   29.53R
PORTLAND       PTSUNNY   43  37  79 SE9       29.55R
VANCOUVER WA   PTSUNNY   45  37  73 E8        29.54S
SCAPPOOSE      CLOUDY    49  39  68 E8        29.53R
HILLSBORO      PTSUNNY   49  36  61 S15G22    29.52S
AURORA         CLOUDY    49  30  48 S13G26    29.55R
MCMINNVILLE    PTSUNNY   48  34  58 S16       29.54R
SALEM          CLOUDY    48  33  56 S16       29.54R
CORVALLIS        N/A     45  36  70 S10       29.52F
EUGENE         CLOUDY    47  36  65 W6        29.53F
$$

ORZ021-028-230000-
SOUTHWEST OREGON


CITY           SKY/WX    TMP DP  RH WIND       PRES   REMARKS
NORTH BEND     CLOUDY    43  39  87 SE16G22   29.53R
BROOKINGS      LGT RAIN  41  39  93 S17G24    29.57S
ROSEBURG       PTSUNNY   50  30  46 VRB7G20   29.52F
SEXTON SUMMIT  CLOUDY    29  26  89 S12G25    29.46F WCI  19
MEDFORD        CLOUDY    48  32  53 N3        29.53F
$$

ORZ014>016-041-230000-
COLUMBIA GORGE


CITY           SKY/WX    TMP DP  RH WIND       PRES   REMARKS
TROUTDALE      MOSUNNY   44  36  73 E20G26    29.55S
THE DALLES     MOSUNNY   38  35  89 CALM      29.60F FOG
$$

ORZ029>031-041-044-049-050-061>064-502-503-505>511-230000-
EASTERN OREGON


CITY           SKY/WX    TMP DP  RH WIND       PRES   REMARKS
REDMOND        MOSUNNY   41  15  35 SW16      29.51S
BEND           MOSUNNY   41  16  36 SW9G15    29.51R
PRINEVILLE     MOSUNNY   41  21  45 SW3       29.53R
KLAMATH FALLS  CLOUDY    34  23  64 S10       29.53R WCI  26
LAKEVIEW       MOSUNNY   32  21  64 SE15      29.58S WCI  22
HERMISTON      CLOUDY    37  34  89 W10       29.59R WCI  30
PENDLETON      CLOUDY    35  33  92 NW10      29.56R WCI  27
JOHN DAY       PTSUNNY   36  32  84 CALM      29.56S
MEACHAM        LGT SNOW  33  27  78 VRB3      29.54R
LA GRANDE      CLOUDY    37  28  70 S20       29.56S WCI  27
BAKER CITY     CLOUDY    34  27  75 SE16G29   29.56R WCI  24
BURNS          MOSUNNY   32  25  75 W5        29.57R WCI  27
ROME             N/A     39  29  67 S13       29.57F WCI  31
ONTARIO        CLOUDY    37  31  78 SE8       29.63F WCI  31
$$



USA.gov is the U.S. government's official web portal to all federal, state and local government web resources and services.